Location: Mercogliano
(40.9167°N, 14.7333°E)
Time: 14:29:25
(UTC+00:00)

Cosmos 2026 Rocket - Pass Details

Date: 18 September 2020
Orbit: 940 x 1000 km, 82.9° (Epoch: 28 October)

Event Time Altitude Azimuth Distance (km) Brightness Sun altitude
Rises 19:58:17 0° 349° (N) 3,717 7.6 -31.7°
Reaches altitude 10° 20:00:49 10° 347° (NNW) 2,770 6.9 -32.1°
Enters shadow 20:06:54 67° 281° (W) 1,081 4.2 -33.0°
